Overview Statistics Trail Chart Weather Telemetry Raw packets
 

This is the latest recevied weather packets stored in our database for station/object SQ5AAG-2. If no packets are shown the sender has not sent any weather packets the latest 10 day(s).

<< 104 105 106 107 108 109 110 >>
Time Temp. Humidity Pressure Rain* Wind** Luminosity Snow
1787822060 20.56° C 59% 1009.3 hPa 0 mm - - -
1787821893 21.67° C 51% 1009.4 hPa 0 mm - - -
1787821656 20° C 59% 1009.2 hPa 0 mm - - -
1787821593 21.67° C 51% 1009.6 hPa 0 mm - - -
1787821293 21.67° C 51% 1009.4 hPa 0 mm - - -
1787821235 20° C 60% 1009.4 hPa 0 mm - - -
1787820993 22.22° C 52% 1009.5 hPa 0 mm - - -
1787820857 20° C 61% 1009.3 hPa 0 mm - - -
1787820692 21.67° C 52% 1009.1 hPa 0 mm - - -
1787820392 21.67° C 52% 1009.3 hPa 0 mm - - -
1787820391 19.44° C 63% 1009.5 hPa 0 mm - - -
1787820092 21.67° C 52% 1009.4 hPa 0 mm - - -
1787819931 19.44° C 63% 1009.4 hPa 0 mm - - -
1787819792 21.67° C 51% 1009.5 hPa 0 mm - - -
1787819582 18.89° C 64% 1009.3 hPa 0 mm - - -
1787819491 21.67° C 53% 1009.5 hPa 0 mm - - -
1787819191 21.67° C 53% 1009.4 hPa 0 mm - - -
1787819170 18.89° C 65% 1009.4 hPa 0 mm - - -
1787818891 21.11° C 53% 1009.2 hPa 0 mm - - -
1787818821 18.33° C 65% 1009.6 hPa 0 mm - - -
1787818590 21.11° C 54% 1009.3 hPa 0 mm - - -
1787818461 17.78° C 66% 1009.4 hPa 0 mm - - -
1787818294 21.11° C 54% 1009.2 hPa 0 mm - - -
1787817990 21.11° C 55% 1009.3 hPa 0 mm - - -
1787817725 17.78° C 67% 1009.5 hPa 0 mm - - -

* Rain latest hour (hover to see other rain measurements)
** Current wind speed in m/s (hover to see current wind gust speed)